Погода в Первомайске

Украина / Николаевская область     48°02′43″N   30°50′57″E
темп.,
°C
ветер,
м/с
пор.,
м/с
влажн.,
%
обл.,
%
осадки,
мм/ч
давл.,
гПа
погр.,
м
15 мая, сб
сб1500:00+11ююз35925 0.6 100985
03:00+11юз339177 0.9 100944
06:00+10зюз22905 0.0 101014
09:00+16зюз23710 0.0 1011443
12:00+21зюз34501 0.0 10121539
15:00+22юз3545100 0.0 10112130
18:00+18ссз3670100 0.1 1012183
21:00+16вюв117285 0.1 101215
16 мая, вс
вс1600:00+13всв11825 0.0 101211
03:00+13вюв118391 0.0 101311
06:00+13св11825 0.0 101212
09:00+18вюв2363100 0.0 1013371
12:00+22вюв345038 0.0 10121159
15:00+24вюв3441100 0.0 10102110
18:00+23юв245061 0.0 1009723
21:00+19ссв1153100 0.0 100811
17 мая, пн
пн1700:00+17св3459100 0.0 100753
03:00+15сз3473100 0.1 100785
06:00+14с2394100 3.6 1007108
09:00+17с458199 4.1 1007551
12:00+20ссз346675 0.0 10071073
15:00+21сз445813 0.4 10061331
18:00+21ссз44607 0.1 10061014
21:00+16в1181100 1.1 100711
18 мая, вт
вт1800:00+15юз3491100 0.9 100769
03:00+13зюз239142 0.9 100732
06:00+13юз229097 0.0 100738
09:00+18ююз2273100 0.1 1008356
12:00+22ююв455977 1.9 10071160
15:00+21з676338 5.2 10061432
18:00+19зсз79701 1.5 10071095
21:00+14сз488519 1.5 1009169
19 мая, ср
ср1900:00+13сз118452 0.0 101013
03:00+13зсз2286100 0.4 101055
06:00+13сз1190100 0.1 101023
09:00+13вюв2394100 1.9 1010141
12:00+15всв3484100 0.3 1009430
15:00+15всв3495100 9.8 1008335
18:00+14всв2497100 8.1 1007239
21:00+14всв3696100 8.3 1006273